Time,TemperatureF,DewpointF,PressureIn,WindDirection,WindDirectionDegrees,WindSpeedMPH,WindSpeedGustMPH,Humidity,HourlyPrecipIn,Conditions,Clouds,dailyrainin,SolarRadiationWatts/m^2,SoftwareType,DateUTC
2013-03-13 00:06:00,51.9,33.3,29.92,North,10,2.0,5.0,49,0.00,CLR,,0.33,0.0,WeatherDisplay:10.37,2013-03-13 04:06:00,
2013-03-13 00:11:00,51.7,32.6,29.92,North,350,2.0,6.0,48,0.00,CLR,,0.33,0.0,WeatherDisplay:10.37,2013-03-13 04:11:00,
2013-03-13 00:16:00,51.6,32.5,29.92,North,11,1.0,5.0,48,0.00,CLR,,0.33,0.0,WeatherDisplay:10.37,2013-03-13 04:16:00,
2013-03-13 00:21:00,51.4,32.9,29.92,NNE,16,1.0,5.0,49,0.00,CLR,,0.33,0.0,WeatherDisplay:10.37,2013-03-13 04:21:00,
2013-03-13 00:31:00,51.0,32.0,29.93,North,6,2.0,6.0,48,0.00,CLR,,0.33,0.0,WeatherDisplay:10.37,2013-03-13 04:31:00,
2013-03-13 00:36:00,50.8,31.3,29.93,North,5,2.0,5.0,47,0.00,CLR,,0.33,0.0,WeatherDisplay:10.37,2013-03-13 04:36:00,
2013-03-13 00:46:00,50.4,30.4,29.93,NNE,19,1.0,5.0,46,0.00,CLR,,0.33,0.0,WeatherDisplay:10.37,2013-03-13 04:46:00,
2013-03-13 00:51:00,50.4,30.9,29.93,NNE,21,1.0,2.0,47,0.00,CLR,,0.33,0.0,WeatherDisplay:10.37,2013-03-13 04:51:00,
2013-03-13 01:01:00,49.9,31.0,29.93,North,8,1.0,2.0,48,0.00,CLR,,0.00,0.0,WeatherDisplay:10.37,2013-03-13 05:01:00,
2013-03-13 01:11:00,49.6,31.2,29.93,NE,46,0.0,2.0,49,0.00,CLR,,0.00,0.0,WeatherDisplay:10.37,2013-03-13 05:11:00,
2013-03-13 01:21:00,49.2,30.8,29.94,North,9,1.0,2.0,49,0.00,CLR,,0.00,0.0,WeatherDisplay:10.37,2013-03-13 05:21:00,
2013-03-13 01:26:00,49.1,31.2,29.94,NNE,17,0.0,2.0,50,0.00,CLR,,0.00,0.0,WeatherDisplay:10.37,2013-03-13 05:26:00,
2013-03-13 01:31:00,48.8,30.5,29.94,NNE,26,1.0,2.0,49,0.00,CLR,,0.00,0.0,WeatherDisplay:10.37,2013-03-13 05:31:00,
2013-03-13 01:36:00,48.6,31.3,29.94,NNE,22,0.0,2.0,51,0.00,CLR,,0.00,0.0,WeatherDisplay:10.37,2013-03-13 05:36:00,
2013-03-13 01:46:00,48.2,29.9,29.94,North,5,1.0,6.0,49,0.00,CLR,,0.00,0.0,WeatherDisplay:10.37,2013-03-13 05:46:00,
2013-03-13 01:51:00,48.0,30.7,29.95,NNE,16,1.0,3.0,51,0.00,CLR,,0.00,0.0,WeatherDisplay:10.37,2013-03-13 05:51:00,
2013-03-13 01:56:00,47.9,30.6,29.95,NNE,15,1.0,5.0,51,0.00,CLR,,0.00,0.0,WeatherDisplay:10.37,2013-03-13 05:56:00,
2013-03-13 02:01:00,47.7,30.4,29.95,North,354,0.0,3.0,51,0.00,FEW,,0.00,0.0,WeatherDisplay:10.37,2013-03-13 06:01:00,
2013-03-13 02:06:00,47.6,30.8,29.95,NNW,342,1.0,2.0,52,0.00,FEW,,0.00,0.0,WeatherDisplay:10.37,2013-03-13 06:06:00,
2013-03-13 02:11:00,47.4,30.6,29.95,North,1,1.0,2.0,52,0.00,FEW,,0.00,0.0,WeatherDisplay:10.37,2013-03-13 06:11:00,
2013-03-13 02:21:00,47.1,30.4,29.95,NE,34,0.0,2.0,52,0.00,FEW,,0.00,0.0,WeatherDisplay:10.37,2013-03-13 06:21:00,
2013-03-13 02:26:00,47.0,30.7,29.95,NNE,27,0.0,2.0,53,0.00,FEW,,0.00,0.0,WeatherDisplay:10.37,2013-03-13 06:26:00,
2013-03-13 02:36:00,46.7,30.9,29.95,NNE,17,1.0,2.0,54,0.00,FEW,,0.00,0.0,WeatherDisplay:10.37,2013-03-13 06:36:00,
2013-03-13 02:41:00,46.4,30.6,29.95,NNE,22,0.0,2.0,54,0.00,FEW,,0.00,0.0,WeatherDisplay:10.37,2013-03-13 06:41:00,
2013-03-13 02:46:00,46.2,30.9,29.96,NNE,19,1.0,3.0,55,0.00,FEW,,0.00,0.0,WeatherDisplay:10.37,2013-03-13 06:46:00,
2013-03-13 02:51:00,46.1,30.4,29.96,North,10,1.0,2.0,54,0.00,FEW,,0.00,0.0,WeatherDisplay:10.37,2013-03-13 06:51:00,
2013-03-13 02:56:00,46.0,30.7,29.97,NNE,14,1.0,2.0,55,0.00,FEW,,0.00,0.0,WeatherDisplay:10.37,2013-03-13 06:56:00,
2013-03-13 03:01:00,45.8,30.6,29.97,North,7,1.0,2.0,55,0.00,FEW,,0.00,0.0,WeatherDisplay:10.37,2013-03-13 07:01:00,
2013-03-13 03:11:00,45.6,30.8,29.97,NNE,26,1.0,2.0,56,0.00,FEW,,0.00,0.0,WeatherDisplay:10.37,2013-03-13 07:11:00,
2013-03-13 03:16:00,45.4,30.6,29.97,NNE,33,0.0,1.0,56,0.00,FEW,,0.00,0.0,WeatherDisplay:10.37,2013-03-13 07:16:00,
2013-03-13 03:21:00,45.2,30.4,29.97,NE,36,0.0,2.0,56,0.00,FEW,,0.00,0.0,WeatherDisplay:10.37,2013-03-13 07:21:00,
2013-03-13 03:26:00,45.1,30.8,29.97,NE,36,0.0,1.0,57,0.00,FEW,,0.00,0.0,WeatherDisplay:10.37,2013-03-13 07:26:00,
2013-03-13 03:31:00,44.9,30.6,29.97,NE,42,0.0,2.0,57,0.00,FEW,,0.00,0.0,WeatherDisplay:10.37,2013-03-13 07:31:00,
2013-03-13 03:36:00,44.8,31.3,29.97,NE,46,1.0,2.0,59,0.00,FEW,,0.00,0.0,WeatherDisplay:10.37,2013-03-13 07:36:00,
2013-03-13 03:41:00,44.6,30.7,29.97,NNE,28,0.0,3.0,58,0.00,FEW,,0.00,0.0,WeatherDisplay:10.37,2013-03-13 07:41:00,
2013-03-13 03:51:00,44.3,30.9,29.97,NNE,17,0.0,6.0,59,0.00,FEW,,0.00,0.0,WeatherDisplay:10.37,2013-03-13 07:51:00,
2013-03-13 03:56:00,44.2,31.2,29.97,North,352,1.0,2.0,60,0.00,FEW,,0.00,0.0,WeatherDisplay:10.37,2013-03-13 07:56:00,
2013-03-13 04:01:00,44.2,31.2,29.97,NNW,340,1.0,2.0,60,0.00,SCT,,0.00,0.0,WeatherDisplay:10.37,2013-03-13 08:01:00,
2013-03-13 04:11:00,43.9,30.9,29.98,NNW,348,0.0,2.0,60,0.00,SCT,,0.00,0.0,WeatherDisplay:10.37,2013-03-13 08:11:00,
2013-03-13 04:21:00,43.8,31.2,29.98,North,351,0.0,0.0,61,0.00,SCT,,0.00,0.0,WeatherDisplay:10.37,2013-03-13 08:21:00,
2013-03-13 04:26:00,43.6,31.0,29.98,North,351,0.0,0.0,61,0.00,SCT,,0.00,0.0,WeatherDisplay:10.37,2013-03-13 08:26:00,
2013-03-13 04:31:00,43.3,31.2,29.98,North,351,0.0,0.0,62,0.00,SCT,,0.00,0.0,WeatherDisplay:10.37,2013-03-13 08:31:00,
2013-03-13 04:36:00,43.2,31.1,29.99,North,351,0.0,0.0,62,0.00,SCT,,0.00,0.0,WeatherDisplay:10.37,2013-03-13 08:36:00,
2013-03-13 04:46:00,42.9,31.6,29.99,North,351,0.0,2.0,64,0.00,SCT,,0.00,0.0,WeatherDisplay:10.37,2013-03-13 08:46:00,
2013-03-13 04:56:00,42.6,31.3,29.99,North,356,1.0,2.0,64,0.00,SCT,,0.00,0.0,WeatherDisplay:10.37,2013-03-13 08:56:00,
2013-03-13 05:06:00,42.5,31.6,29.99,North,4,1.0,2.0,65,0.00,FEW,,0.00,0.0,WeatherDisplay:10.37,2013-03-13 09:06:00,
2013-03-13 05:16:00,42.3,31.7,29.99,North,2,0.0,2.0,66,0.00,FEW,,0.00,0.0,WeatherDisplay:10.37,2013-03-13 09:16:00,
2013-03-13 05:21:00,42.3,31.7,29.99,North,3,0.0,2.0,66,0.00,FEW,,0.00,0.0,WeatherDisplay:10.37,2013-03-13 09:21:00,
2013-03-13 05:26:00,42.2,31.6,29.99,NNE,14,0.0,1.0,66,0.00,FEW,,0.00,0.0,WeatherDisplay:10.37,2013-03-13 09:26:00,
2013-03-13 05:36:00,42.2,31.3,29.99,NNE,15,0.0,1.0,65,0.00,FEW,,0.00,0.0,WeatherDisplay:10.37,2013-03-13 09:36:00,
2013-03-13 05:41:00,42.2,31.6,29.99,NNE,15,0.0,0.0,66,0.00,FEW,,0.00,0.0,WeatherDisplay:10.37,2013-03-13 09:41:00,
2013-03-13 05:46:00,42.1,31.6,30.00,NNE,15,0.0,0.0,66,0.00,FEW,,0.00,0.0,WeatherDisplay:10.37,2013-03-13 09:46:00,
2013-03-13 05:51:00,41.9,31.4,30.00,NNE,15,0.0,0.0,66,0.00,FEW,,0.00,0.0,WeatherDisplay:10.37,2013-03-13 09:51:00,
2013-03-13 06:01:00,41.6,31.1,30.00,NNE,15,0.0,0.0,66,0.00,FEW,,0.00,0.0,WeatherDisplay:10.37,2013-03-13 10:01:00,
2013-03-13 06:16:00,41.3,31.2,30.00,NNE,15,0.0,0.0,67,0.00,FEW,,0.00,0.0,WeatherDisplay:10.37,2013-03-13 10:16:00,
2013-03-13 06:26:00,41.1,31.3,30.01,NNE,15,0.0,0.0,68,0.00,FEW,,0.00,0.0,WeatherDisplay:10.37,2013-03-13 10:26:00,
2013-03-13 06:36:00,40.7,31.4,30.01,NNE,15,0.0,0.0,69,0.00,FEW,,0.00,0.0,WeatherDisplay:10.37,2013-03-13 10:36:00,
2013-03-13 06:51:00,40.0,31.4,30.02,NNE,15,0.0,0.0,71,0.00,FEW,,0.00,0.0,WeatherDisplay:10.37,2013-03-13 10:51:00,
2013-03-13 06:56:00,39.8,31.2,30.02,NNE,15,0.0,0.0,71,0.00,FEW,,0.00,0.0,WeatherDisplay:10.37,2013-03-13 10:56:00,
2013-03-13 07:01:00,39.5,30.9,30.02,NNE,15,0.0,0.0,71,0.00,FEW,,0.00,0.0,WeatherDisplay:10.37,2013-03-13 11:01:00,
2013-03-13 07:11:00,39.1,30.8,30.02,NNE,15,0.0,0.0,72,0.00,FEW,,0.00,0.0,WeatherDisplay:10.37,2013-03-13 11:11:00,
2013-03-13 07:16:00,38.8,30.6,30.02,NNE,15,0.0,0.0,72,0.00,FEW,,0.00,0.0,WeatherDisplay:10.37,2013-03-13 11:16:00,
2013-03-13 07:31:00,38.2,30.6,30.02,NNE,15,0.0,0.0,74,0.00,FEW,,0.00,0.0,WeatherDisplay:10.37,2013-03-13 11:31:00,
2013-03-13 07:36:00,37.9,30.4,30.02,NNE,15,0.0,0.0,74,0.00,FEW,,0.00,5.8,WeatherDisplay:10.37,2013-03-13 11:36:00,
2013-03-13 07:46:00,37.6,30.7,30.02,NNE,15,0.0,0.0,76,0.00,FEW,,0.00,12.6,WeatherDisplay:10.37,2013-03-13 11:46:00,
2013-03-13 08:01:00,37.2,31.0,30.03,NNE,15,0.0,0.0,78,0.00,FEW,,0.00,20.7,WeatherDisplay:10.37,2013-03-13 12:01:00,
2013-03-13 08:16:00,37.0,31.4,30.04,NNE,15,0.0,1.0,80,0.00,FEW,,0.00,26.5,WeatherDisplay:10.37,2013-03-13 12:16:00,
2013-03-13 08:26:00,37.0,31.7,30.04,NNE,15,0.0,0.0,81,0.00,FEW,,0.00,29.9,WeatherDisplay:10.37,2013-03-13 12:26:00,
2013-03-13 08:31:00,37.2,31.9,30.04,NNE,15,0.0,0.0,81,0.00,FEW,,0.00,29.9,WeatherDisplay:10.37,2013-03-13 12:31:00,
2013-03-13 08:46:00,37.5,32.5,30.04,NNE,15,0.0,0.0,82,0.00,FEW,,0.00,34.5,WeatherDisplay:10.37,2013-03-13 12:46:00,
2013-03-13 08:56:00,37.9,32.9,30.04,NNE,15,0.0,1.0,82,0.00,FEW,,0.00,36.8,WeatherDisplay:10.37,2013-03-13 12:56:00,
2013-03-13 09:11:00,39.1,33.1,30.04,NW,312,0.0,2.0,79,0.00,CLR,,0.00,37.9,WeatherDisplay:10.37,2013-03-13 13:11:00,
2013-03-13 09:21:00,40.0,33.4,30.04,WSW,251,1.0,2.0,77,0.00,CLR,,0.00,40.3,WeatherDisplay:10.37,2013-03-13 13:21:00,
2013-03-13 09:36:00,41.3,33.3,30.05,WSW,239,0.0,2.0,73,0.00,CLR,,0.00,46.0,WeatherDisplay:10.37,2013-03-13 13:36:00,
2013-03-13 09:46:00,42.4,32.9,30.04,South,188,0.0,3.0,69,0.00,CLR,,0.00,48.3,WeatherDisplay:10.37,2013-03-13 13:46:00,
2013-03-13 09:51:00,42.8,32.6,30.04,SSW,209,1.0,2.0,67,0.00,CLR,,0.00,50.6,WeatherDisplay:10.37,2013-03-13 13:51:00,
2013-03-13 10:01:00,43.9,32.1,30.04,WSW,238,0.0,3.0,63,0.00,CLR,,0.00,52.9,WeatherDisplay:10.37,2013-03-13 14:01:00,
2013-03-13 10:16:00,45.6,31.2,30.04,West,276,2.0,5.0,57,0.00,CLR,,0.00,72.4,WeatherDisplay:10.37,2013-03-13 14:16:00,
2013-03-13 10:21:00,46.1,30.8,30.04,West,274,1.0,5.0,55,0.00,CLR,,0.00,264.5,WeatherDisplay:10.37,2013-03-13 14:21:00,
2013-03-13 10:36:00,47.6,32.2,30.04,WNW,295,0.0,5.0,55,0.00,CLR,,0.00,604.9,WeatherDisplay:10.37,2013-03-13 14:36:00,
2013-03-13 10:41:00,48.2,31.9,30.04,West,281,1.0,5.0,53,0.00,CLR,,0.00,621.0,WeatherDisplay:10.37,2013-03-13 14:41:00,
2013-03-13 10:46:00,48.6,30.8,30.04,WNW,297,1.0,5.0,50,0.00,CLR,,0.00,640.6,WeatherDisplay:10.37,2013-03-13 14:46:00,
2013-03-13 10:51:00,49.3,30.9,30.04,West,270,1.0,4.0,49,0.00,CLR,,0.00,663.6,WeatherDisplay:10.37,2013-03-13 14:51:00,
2013-03-13 10:56:00,49.6,30.7,30.04,NW,304,1.0,3.0,48,0.00,CLR,,0.00,680.8,WeatherDisplay:10.37,2013-03-13 14:56:00,
2013-03-13 11:01:00,50.3,31.9,30.03,NNW,334,0.0,3.0,49,0.00,FEW,,0.00,695.8,WeatherDisplay:10.37,2013-03-13 15:01:00,
2013-03-13 11:11:00,51.1,31.6,30.03,NNE,23,1.0,4.0,47,0.00,FEW,,0.00,723.4,WeatherDisplay:10.37,2013-03-13 15:11:00,
2013-03-13 11:16:00,51.5,29.2,30.02,WNW,290,2.0,7.0,42,0.00,FEW,,0.00,739.4,WeatherDisplay:10.37,2013-03-13 15:16:00,
2013-03-13 11:21:00,52.2,30.3,30.03,WNW,290,1.0,4.0,43,0.00,FEW,,0.00,754.4,WeatherDisplay:10.37,2013-03-13 15:21:00,
2013-03-13 11:26:00,52.6,28.4,30.02,North,1,2.0,6.0,39,0.00,FEW,,0.00,774.0,WeatherDisplay:10.37,2013-03-13 15:26:00,
2013-03-13 11:31:00,52.9,28.0,30.02,NNE,14,1.0,5.0,38,0.00,FEW,,0.00,788.9,WeatherDisplay:10.37,2013-03-13 15:31:00,
2013-03-13 11:41:00,54.1,27.7,30.02,NW,316,3.0,7.0,36,0.00,FEW,,0.00,818.8,WeatherDisplay:10.37,2013-03-13 15:41:00,
2013-03-13 11:56:00,55.0,25.6,30.01,NNW,340,2.0,6.0,32,0.00,FEW,,0.00,851.0,WeatherDisplay:10.37,2013-03-13 15:56:00,
2013-03-13 12:01:00,55.3,25.1,30.01,NW,317,3.0,6.0,31,0.00,SCT,,0.00,863.7,WeatherDisplay:10.37,2013-03-13 16:01:00,
2013-03-13 12:11:00,56.2,24.3,30.00,NW,304,1.0,6.0,29,0.00,SCT,,0.00,887.8,WeatherDisplay:10.37,2013-03-13 16:11:00,
2013-03-13 12:16:00,56.5,24.6,30.00,WNW,298,2.0,6.0,29,0.00,SCT,,0.00,893.5,WeatherDisplay:10.37,2013-03-13 16:16:00,
2013-03-13 12:21:00,57.0,23.3,30.00,West,266,2.0,6.0,27,0.00,SCT,,0.00,903.9,WeatherDisplay:10.37,2013-03-13 16:21:00,
2013-03-13 12:26:00,57.3,27.6,29.99,WSW,257,1.0,7.0,32,0.00,SCT,,0.00,911.9,WeatherDisplay:10.37,2013-03-13 16:26:00,
2013-03-13 12:31:00,57.6,24.7,30.00,West,267,2.0,6.0,28,0.00,SCT,,0.00,931.5,WeatherDisplay:10.37,2013-03-13 16:31:00,
2013-03-13 12:36:00,57.8,23.1,30.00,WSW,241,5.0,8.0,26,0.00,SCT,,0.00,931.5,WeatherDisplay:10.37,2013-03-13 16:36:00,
2013-03-13 12:46:00,57.5,21.9,29.99,West,265,5.0,13.0,25,0.00,SCT,,0.00,941.9,WeatherDisplay:10.37,2013-03-13 16:46:00,
2013-03-13 12:51:00,57.6,22.9,29.99,WNW,289,3.0,8.0,26,0.00,SCT,,0.00,958.0,WeatherDisplay:10.37,2013-03-13 16:51:00,
2013-03-13 13:01:00,58.0,23.3,29.99,SW,218,5.0,13.0,26,0.00,BKN,,0.00,1063.8,WeatherDisplay:10.37,2013-03-13 17:01:00,
2013-03-13 13:11:00,59.3,26.2,29.99,West,276,3.0,8.0,28,0.00,BKN,,0.00,1032.7,WeatherDisplay:10.37,2013-03-13 17:11:00,
2013-03-13 13:16:00,59.4,25.4,29.99,West,270,3.0,7.0,27,0.00,BKN,,0.00,263.3,WeatherDisplay:10.37,2013-03-13 17:16:00,
2013-03-13 13:21:00,58.9,25.0,29.98,West,273,2.0,12.0,27,0.00,BKN,,0.00,293.3,WeatherDisplay:10.37,2013-03-13 17:21:00,
2013-03-13 13:26:00,58.2,23.4,29.98,WSW,242,3.0,8.0,26,0.00,BKN,,0.00,282.9,WeatherDisplay:10.37,2013-03-13 17:26:00,
2013-03-13 13:31:00,57.4,23.6,29.98,SW,220,3.0,7.0,27,0.00,BKN,,0.00,400.2,WeatherDisplay:10.37,2013-03-13 17:31:00,
2013-03-13 13:36:00,57.0,23.3,29.98,WSW,243,1.0,8.0,27,0.00,BKN,,0.00,343.8,WeatherDisplay:10.37,2013-03-13 17:36:00,
2013-03-13 13:41:00,56.9,24.1,29.98,WSW,258,6.0,9.0,28,0.00,BKN,,0.00,343.8,WeatherDisplay:10.37,2013-03-13 17:41:00,
2013-03-13 13:46:00,57.0,24.2,29.97,SW,223,3.0,7.0,28,0.00,BKN,,0.00,307.0,WeatherDisplay:10.37,2013-03-13 17:46:00,
2013-03-13 13:56:00,56.7,23.9,29.97,West,281,6.0,8.0,28,0.00,BKN,,0.00,381.8,WeatherDisplay:10.37,2013-03-13 17:56:00,
2013-03-13 14:01:00,57.0,25.0,29.97,West,278,2.0,6.0,29,0.00,BKN,,0.00,277.1,WeatherDisplay:10.37,2013-03-13 18:01:00,
2013-03-13 14:06:00,57.0,24.1,29.96,West,266,3.0,6.0,28,0.00,BKN,,0.00,930.4,WeatherDisplay:10.37,2013-03-13 18:06:00,
2013-03-13 14:11:00,57.6,24.7,29.96,West,281,3.0,8.0,28,0.00,BKN,,0.00,264.5,WeatherDisplay:10.37,2013-03-13 18:11:00,
2013-03-13 14:16:00,57.6,23.8,29.96,WNW,282,5.0,8.0,27,0.00,BKN,,0.00,282.9,WeatherDisplay:10.37,2013-03-13 18:16:00,
2013-03-13 14:21:00,58.1,26.8,29.96,SW,227,5.0,7.0,30,0.00,BKN,,0.00,883.2,WeatherDisplay:10.37,2013-03-13 18:21:00,
2013-03-13 14:36:00,57.7,24.8,29.94,SW,227,2.0,8.0,28,0.00,BKN,,0.00,632.5,WeatherDisplay:10.37,2013-03-13 18:36:00,
2013-03-13 14:41:00,58.4,27.0,29.94,WSW,239,5.0,12.0,30,0.00,BKN,,0.00,897.0,WeatherDisplay:10.37,2013-03-13 18:41:00,
2013-03-13 14:46:00,58.6,24.7,29.94,West,271,5.0,7.0,27,0.00,BKN,,0.00,944.2,WeatherDisplay:10.37,2013-03-13 18:46:00,
2013-03-13 14:51:00,58.9,25.0,29.94,West,277,2.0,8.0,27,0.00,BKN,,0.00,853.3,WeatherDisplay:10.37,2013-03-13 18:51:00,
2013-03-13 14:56:00,59.3,26.1,29.94,West,280,5.0,7.0,28,0.00,BKN,,0.00,1013.1,WeatherDisplay:10.37,2013-03-13 18:56:00,
2013-03-13 15:11:00,59.6,25.5,29.93,WNW,300,5.0,8.0,27,0.00,BKN,,0.00,1018.9,WeatherDisplay:10.37,2013-03-13 19:11:00,
2013-03-13 15:36:00,58.3,25.3,29.93,WNW,287,3.0,6.0,28,0.00,BKN,,0.00,925.7,WeatherDisplay:10.37,2013-03-13 19:36:00,
2013-03-13 15:41:00,58.0,25.1,29.93,WSW,257,5.0,7.0,28,0.00,BKN,,0.00,141.4,WeatherDisplay:10.37,2013-03-13 19:41:00,
2013-03-13 15:46:00,57.5,24.6,29.93,West,268,3.0,9.0,28,0.00,BKN,,0.00,125.4,WeatherDisplay:10.37,2013-03-13 19:46:00,
2013-03-13 15:51:00,57.0,25.8,29.93,West,269,2.0,8.0,30,0.00,BKN,,0.00,186.3,WeatherDisplay:10.37,2013-03-13 19:51:00,
2013-03-13 15:56:00,56.7,23.9,29.93,WNW,283,2.0,6.0,28,0.00,BKN,,0.00,288.7,WeatherDisplay:10.37,2013-03-13 19:56:00,
2013-03-13 16:06:00,57.3,25.3,29.93,West,275,3.0,7.0,29,0.00,BKN,,0.00,143.8,WeatherDisplay:10.37,2013-03-13 20:06:00,
2013-03-13 16:11:00,57.5,24.6,29.93,WSW,255,2.0,13.0,28,0.00,BKN,,0.00,205.9,WeatherDisplay:10.37,2013-03-13 20:11:00,
2013-03-13 16:16:00,57.5,24.6,29.93,WSW,250,2.0,7.0,28,0.00,BKN,,0.00,147.2,WeatherDisplay:10.37,2013-03-13 20:16:00,
2013-03-13 16:21:00,57.5,24.6,29.93,WSW,256,3.0,6.0,28,0.00,BKN,,0.00,173.6,WeatherDisplay:10.37,2013-03-13 20:21:00,
2013-03-13 16:26:00,57.3,26.1,29.93,NW,307,3.0,7.0,30,0.00,BKN,,0.00,208.1,WeatherDisplay:10.37,2013-03-13 20:26:00,
2013-03-13 16:31:00,57.3,24.4,29.93,WNW,296,2.0,7.0,28,0.00,BKN,,0.00,196.6,WeatherDisplay:10.37,2013-03-13 20:31:00,
2013-03-13 16:36:00,57.5,26.3,29.93,WNW,296,3.0,8.0,30,0.00,BKN,,0.00,146.1,WeatherDisplay:10.37,2013-03-13 20:36:00,
2013-03-13 16:41:00,57.4,25.4,29.93,NW,305,3.0,7.0,29,0.00,BKN,,0.00,138.0,WeatherDisplay:10.37,2013-03-13 20:41:00,
2013-03-13 16:51:00,57.0,25.8,29.93,NW,320,1.0,6.0,30,0.00,BKN,,0.00,173.6,WeatherDisplay:10.37,2013-03-13 20:51:00,
2013-03-13 17:01:00,57.0,25.8,29.93,West,280,3.0,7.0,30,0.00,BKN,,0.00,96.6,WeatherDisplay:10.37,2013-03-13 21:01:00,
2013-03-13 17:06:00,57.0,26.6,29.93,West,274,2.0,8.0,31,0.00,BKN,,0.00,127.7,WeatherDisplay:10.37,2013-03-13 21:06:00,
2013-03-13 17:11:00,57.0,24.2,29.93,NW,305,2.0,8.0,28,0.00,BKN,,0.00,104.7,WeatherDisplay:10.37,2013-03-13 21:11:00,
2013-03-13 17:16:00,57.2,25.2,29.93,NW,310,2.0,6.0,29,0.00,BKN,,0.00,135.7,WeatherDisplay:10.37,2013-03-13 21:16:00,
2013-03-13 17:21:00,57.2,23.5,29.93,WNW,290,2.0,7.0,27,0.00,BKN,,0.00,147.2,WeatherDisplay:10.37,2013-03-13 21:21:00,
2013-03-13 17:26:00,57.2,24.3,29.93,NW,315,3.0,9.0,28,0.00,BKN,,0.00,79.4,WeatherDisplay:10.37,2013-03-13 21:26:00,
2013-03-13 17:31:00,56.9,23.2,29.94,WNW,300,6.0,8.0,27,0.00,BKN,,0.00,184.0,WeatherDisplay:10.37,2013-03-13 21:31:00,
2013-03-13 17:41:00,56.6,23.8,29.94,WNW,293,2.0,9.0,28,0.00,BKN,,0.00,406.0,WeatherDisplay:10.37,2013-03-13 21:41:00,
2013-03-13 17:56:00,56.7,23.9,29.95,WNW,295,3.0,8.0,28,0.00,BKN,,0.00,196.6,WeatherDisplay:10.37,2013-03-13 21:56:00,
2013-03-13 18:06:00,56.3,22.7,29.95,NW,304,2.0,10.0,27,0.00,BKN,,0.00,178.3,WeatherDisplay:10.37,2013-03-13 22:06:00,
2013-03-13 18:11:00,56.0,21.6,29.95,NNW,335,3.0,8.0,26,0.00,BKN,,0.00,159.9,WeatherDisplay:10.37,2013-03-13 22:11:00,
2013-03-13 18:16:00,55.9,23.2,29.95,NW,318,2.0,7.0,28,0.00,BKN,,0.00,106.9,WeatherDisplay:10.37,2013-03-13 22:16:00,
2013-03-13 18:21:00,55.7,23.0,29.96,NNW,327,5.0,8.0,28,0.00,BKN,,0.00,64.4,WeatherDisplay:10.37,2013-03-13 22:21:00,
2013-03-13 18:26:00,55.4,24.4,29.96,NNW,336,2.0,6.0,30,0.00,BKN,,0.00,56.4,WeatherDisplay:10.37,2013-03-13 22:26:00,
2013-03-13 18:31:00,55.3,23.5,29.96,NW,317,3.0,9.0,29,0.00,BKN,,0.00,46.0,WeatherDisplay:10.37,2013-03-13 22:31:00,
2013-03-13 18:41:00,54.7,24.6,29.96,NW,323,2.0,7.0,31,0.00,BKN,,0.00,24.2,WeatherDisplay:10.37,2013-03-13 22:41:00,
2013-03-13 18:46:00,54.3,24.2,29.97,NNW,330,2.0,5.0,31,0.00,BKN,,0.00,26.5,WeatherDisplay:10.37,2013-03-13 22:46:00,
2013-03-13 18:51:00,53.9,23.1,29.97,NW,326,2.0,7.0,30,0.00,BKN,,0.00,20.7,WeatherDisplay:10.37,2013-03-13 22:51:00,
2013-03-13 18:56:00,53.6,24.4,29.98,NW,306,0.0,5.0,32,0.00,BKN,,0.00,16.1,WeatherDisplay:10.37,2013-03-13 22:56:00,
2013-03-13 19:01:00,53.3,25.6,29.98,WNW,296,2.0,5.0,34,0.00,FEW,,0.00,13.8,WeatherDisplay:10.37,2013-03-13 23:01:00,
2013-03-13 19:11:00,52.8,25.2,29.98,WNW,295,1.0,4.0,34,0.00,FEW,,0.00,8.0,WeatherDisplay:10.37,2013-03-13 23:11:00,
2013-03-13 19:21:00,52.0,25.2,29.99,NNW,343,1.0,2.0,35,0.00,FEW,,0.00,0.0,WeatherDisplay:10.37,2013-03-13 23:21:00,
2013-03-13 19:26:00,51.7,24.2,29.99,NNW,345,1.0,5.0,34,0.00,FEW,,0.00,0.0,WeatherDisplay:10.37,2013-03-13 23:26:00,
2013-03-13 19:36:00,51.0,24.2,30.00,North,360,2.0,5.0,35,0.00,FEW,,0.00,0.0,WeatherDisplay:10.37,2013-03-13 23:36:00,
2013-03-13 19:41:00,50.6,24.6,30.00,NNW,347,3.0,6.0,36,0.00,FEW,,0.00,0.0,WeatherDisplay:10.37,2013-03-13 23:41:00,
2013-03-13 19:46:00,50.2,25.5,30.01,North,358,1.0,5.0,38,0.00,FEW,,0.00,0.0,WeatherDisplay:10.37,2013-03-13 23:46:00,
2013-03-13 19:51:00,49.9,25.2,30.01,NNE,14,2.0,7.0,38,0.00,FEW,,0.00,0.0,WeatherDisplay:10.37,2013-03-13 23:51:00,
2013-03-13 19:56:00,49.6,25.6,30.01,NNE,21,1.0,5.0,39,0.00,FEW,,0.00,0.0,WeatherDisplay:10.37,2013-03-13 23:56:00,
2013-03-13 20:01:00,49.4,26.1,30.01,North,3,1.0,2.0,40,0.00,FEW,,0.00,0.0,WeatherDisplay:10.37,2013-03-14 00:01:00,
2013-03-13 20:21:00,48.3,24.5,30.02,NNE,19,3.0,6.0,39,0.00,FEW,,0.00,0.0,WeatherDisplay:10.37,2013-03-14 00:21:00,
2013-03-13 20:26:00,48.0,23.6,30.03,North,5,3.0,7.0,38,0.00,FEW,,0.00,0.0,WeatherDisplay:10.37,2013-03-14 00:26:00,
2013-03-13 20:46:00,47.1,22.8,30.04,North,11,3.0,7.0,38,0.00,FEW,,0.00,0.0,WeatherDisplay:10.37,2013-03-14 00:46:00,
2013-03-13 20:51:00,47.0,23.3,30.04,NNE,12,2.0,7.0,39,0.00,FEW,,0.00,0.0,WeatherDisplay:10.37,2013-03-14 00:51:00,
2013-03-13 20:56:00,46.7,23.0,30.04,NNE,13,2.0,8.0,39,0.00,FEW,,0.00,0.0,WeatherDisplay:10.37,2013-03-14 00:56:00,
2013-03-13 21:06:00,46.2,21.3,30.05,North,350,3.0,7.0,37,0.00,FEW,,0.00,0.0,WeatherDisplay:10.37,2013-03-14 01:06:00,
2013-03-13 21:11:00,46.0,21.2,30.05,NNE,18,5.0,9.0,37,0.00,FEW,,0.00,0.0,WeatherDisplay:10.37,2013-03-14 01:11:00,
2013-03-13 21:21:00,45.7,21.5,30.06,North,358,2.0,8.0,38,0.00,FEW,,0.00,0.0,WeatherDisplay:10.37,2013-03-14 01:21:00,
2013-03-13 21:36:00,45.1,22.8,30.06,North,4,1.0,2.0,41,0.00,FEW,,0.00,0.0,WeatherDisplay:10.37,2013-03-14 01:36:00,
2013-03-13 21:46:00,44.6,21.7,30.06,North,0,1.0,5.0,40,0.00,FEW,,0.00,0.0,WeatherDisplay:10.37,2013-03-14 01:46:00,
2013-03-13 21:51:00,44.3,22.1,30.06,NNE,19,1.0,5.0,41,0.00,FEW,,0.00,0.0,WeatherDisplay:10.37,2013-03-14 01:51:00,
2013-03-13 22:06:00,43.9,22.8,30.07,North,1,2.0,5.0,43,0.00,FEW,,0.00,0.0,WeatherDisplay:10.37,2013-03-14 02:06:00,
2013-03-13 22:16:00,43.5,23.0,30.07,North,358,2.0,5.0,44,0.00,FEW,,0.00,0.0,WeatherDisplay:10.37,2013-03-14 02:16:00,
2013-03-13 22:21:00,43.3,22.8,30.08,NW,326,3.0,8.0,44,0.00,FEW,,0.00,0.0,WeatherDisplay:10.37,2013-03-14 02:21:00,
2013-03-13 22:26:00,43.2,21.1,30.08,NNW,347,3.0,7.0,41,0.00,FEW,,0.00,0.0,WeatherDisplay:10.37,2013-03-14 02:26:00,
2013-03-13 22:31:00,43.0,20.3,30.08,NNW,346,3.0,7.0,40,0.00,FEW,,0.00,0.0,WeatherDisplay:10.37,2013-03-14 02:31:00,
2013-03-13 22:36:00,42.8,20.7,30.09,North,359,1.0,5.0,41,0.00,FEW,,0.00,0.0,WeatherDisplay:10.37,2013-03-14 02:36:00,
2013-03-13 22:46:00,42.5,21.0,30.09,North,3,0.0,1.0,42,0.00,FEW,,0.00,0.0,WeatherDisplay:10.37,2013-03-14 02:46:00,
2013-03-13 22:51:00,42.3,21.4,30.09,NNE,26,2.0,5.0,43,0.00,FEW,,0.00,0.0,WeatherDisplay:10.37,2013-03-14 02:51:00,
2013-03-13 22:56:00,42.2,20.7,30.09,North,1,3.0,9.0,42,0.00,FEW,,0.00,0.0,WeatherDisplay:10.37,2013-03-14 02:56:00,
2013-03-13 23:01:00,42.1,21.2,30.09,North,4,2.0,7.0,43,0.00,FEW,,0.00,0.0,WeatherDisplay:10.37,2013-03-14 03:01:00,
2013-03-13 23:06:00,41.9,21.5,30.09,NNE,17,1.0,8.0,44,0.00,FEW,,0.00,0.0,WeatherDisplay:10.37,2013-03-14 03:06:00,
2013-03-13 23:16:00,41.6,21.8,30.10,NNE,18,2.0,5.0,45,0.00,FEW,,0.00,0.0,WeatherDisplay:10.37,2013-03-14 03:16:00,
2013-03-13 23:21:00,41.5,21.7,30.10,NNE,20,2.0,6.0,45,0.00,FEW,,0.00,0.0,WeatherDisplay:10.37,2013-03-14 03:21:00,
2013-03-13 23:26:00,41.2,22.0,30.10,North,8,3.0,5.0,46,0.00,FEW,,0.00,0.0,WeatherDisplay:10.37,2013-03-14 03:26:00,
2013-03-13 23:36:00,40.8,21.1,30.10,NNW,344,5.0,8.0,45,0.00,FEW,,0.00,0.0,WeatherDisplay:10.37,2013-03-14 03:36:00,
2013-03-13 23:46:00,40.3,20.6,30.10,NNW,340,3.0,9.0,45,0.00,FEW,,0.00,0.0,WeatherDisplay:10.37,2013-03-14 03:46:00,
2013-03-13 23:51:00,40.1,21.0,30.11,NNW,342,3.0,9.0,46,0.00,FEW,,0.00,0.0,WeatherDisplay:10.37,2013-03-14 03:51:00,
2013-03-13 23:56:00,39.9,20.3,30.11,North,349,1.0,6.0,45,0.00,FEW,,0.00,0.0,WeatherDisplay:10.37,2013-03-14 03:56:00,